FALCON 9 DEB (44976 NORAD) Tracking and Keplerian Element Data

This shows tracking and keplerian element data for the satellite.

Feedback or suggestion? Click here.




ElementValue
Catalog44976
NameFALCON 9 DEB
Epoch Orbit950
Epoch Day66.16947612
Epoch Year2020
RAAN89.2389
Inclination52.9839
Eccentricity9.82E-05
Argument of Perigee287.7212
Mean Anonmoly72.3727
Mean Motion16.41594528
Decay Rate0.05683072
L11 44976U 20001BQ 20066.16947612 .05683072 12414-4 34064-3 0 9990
L22 44976 52.9839 89.2389 0000982 287.7212 72.3727 16.41594528 9502

Live tracking and technical data element details for FALCON 9 DEB (NORAD 44976). FALCON 9 DEB can be tracked NOW for your location showing map with azimuth and elevation plus other details from your city location.

Track the satellite on the map from your city or location and see movement details for azimuth, elevation, latitude, longitude, range, height, and movement on the map or in text.







IsCatalogInMostPopularTable: catalog: 44976, numindb: 35
Update: records affected: 1



GetName: 44976 FALCON 9 DEB

Hit Count: updated at: Fri, 10 Jul 2020 02:36:16 GMT